• In Hungary
  • List of Countries
  • For 7 days
  • Water Temperature
  • Satellite Maps
  • Weather Map
  • News
  • Weather Widgets
  • user-avatar
    Login

    Hourly Weather Kuta

    Today, 22 November, Wednesday

    Time Temperature Precipitation Wind Pressure Humidity
    00:00 +27°C° 0 mm 3 mps 756 mmHg 88%
    01:00 +27°C° 0.3 mm 3 mps 755 mmHg 87%
    02:00 +27°C° 0.3 mm 3 mps 755 mmHg 87%
    03:00 +26°C° 0.3 mm 3 mps 755 mmHg 86%
    04:00 +26°C° 0.1 mm 3 mps 755 mmHg 85%
    05:00 +27°C° 0.1 mm 3 mps 755 mmHg 85%
    06:00 +27°C° 0 mm 3 mps 755 mmHg 85%
    07:00 +29°C° 0.1 mm 3 mps 755 mmHg 79%
    08:00 +30°C° 0.1 mm 2 mps 755 mmHg 73%
    09:00 +32°C° 0.1 mm 2 mps 756 mmHg 66%
    10:00 +34°C° 0 mm 2 mps 755 mmHg 64%
    11:00 +34°C° 0 mm 2 mps 755 mmHg 62%
    12:00 +35°C° 0 mm 3 mps 755 mmHg 60%
    13:00 +34°C° 0.6 mm 3 mps 754 mmHg 65%
    14:00 +33°C° 0.6 mm 3 mps 754 mmHg 71%
    15:00 +31°C° 0.6 mm 3 mps 753 mmHg 77%
    16:00 +30°C° 1.7 mm 3 mps 754 mmHg 82%
    17:00 +29°C° 1.7 mm 3 mps 754 mmHg 86%
    18:00 +28°C° 1.7 mm 3 mps 754 mmHg 90%
    19:00 +28°C° 2.1 mm 3 mps 755 mmHg 90%
    20:00 +28°C° 2.1 mm 3 mps 755 mmHg 90%
    21:00 +28°C° 2.1 mm 3 mps 756 mmHg 90%
    22:00 +28°C° 1.5 mm 3 mps 756 mmHg 90%
    23:00 +28°C° 1.5 mm 3 mps 756 mmHg 90%

    Tomorrow, 23 November, Thursday

    Time Temperature Precipitation Wind Pressure Humidity
    00:00 +27°C° 1.5 mm 3 mps 756 mmHg 91%
    01:00 +27°C° 1.9 mm 3 mps 755 mmHg 90%
    02:00 +27°C° 1.9 mm 2 mps 755 mmHg 90%
    03:00 +27°C° 1.9 mm 2 mps 754 mmHg 90%
    04:00 +27°C° 1.4 mm 2 mps 755 mmHg 90%
    05:00 +27°C° 1.4 mm 2 mps 755 mmHg 90%
    06:00 +27°C° 1.4 mm 2 mps 755 mmHg 89%
    07:00 +28°C° 0.2 mm 2 mps 756 mmHg 84%
    08:00 +29°C° 0.2 mm 2 mps 756 mmHg 79%
    09:00 +31°C° 0.2 mm 2 mps 757 mmHg 73%
    10:00 +31°C° 0.2 mm 2 mps 756 mmHg 71%
    11:00 +32°C° 0.2 mm 2 mps 756 mmHg 69%
    12:00 +34°C° 0.2 mm 2 mps 755 mmHg 66%
    13:00 +32°C° 1.3 mm 2 mps 755 mmHg 72%
    14:00 +31°C° 1.3 mm 2 mps 754 mmHg 77%
    15:00 +30°C° 1.3 mm 2 mps 754 mmHg 82%
    16:00 +29°C° 2.2 mm 2 mps 754 mmHg 85%
    17:00 +28°C° 2.2 mm 2 mps 754 mmHg 88%
    18:00 +28°C° 2.2 mm 2 mps 755 mmHg 90%
    19:00 +28°C° 1.7 mm 2 mps 755 mmHg 91%
    20:00 +28°C° 1.7 mm 2 mps 756 mmHg 91%
    21:00 +28°C° 1.7 mm 2 mps 757 mmHg 91%
    22:00 +27°C° 1.1 mm 2 mps 756 mmHg 91%
    23:00 +27°C° 1.1 mm 2 mps 756 mmHg 91%

    Day after tomorrow, 24 November, Friday

    Time Temperature Precipitation Wind Pressure Humidity
    00:00 +27°C° 1.1 mm 2 mps 756 mmHg 91%
    01:00 +27°C° 1.2 mm 2 mps 756 mmHg 91%
    02:00 +27°C° 1.2 mm 2 mps 755 mmHg 91%
    03:00 +27°C° 1.2 mm 2 mps 755 mmHg 91%
    04:00 +27°C° 1.6 mm 2 mps 755 mmHg 92%
    05:00 +27°C° 1.6 mm 2 mps 755 mmHg 92%
    06:00 +27°C° 1.6 mm 2 mps 755 mmHg 92%
    07:00 +27°C° 1.1 mm 2 mps 756 mmHg 92%
    08:00 +27°C° 1.1 mm 2 mps 756 mmHg 92%
    09:00 +27°C° 1.1 mm 2 mps 757 mmHg 91%
    10:00 +28°C° 1 mm 2 mps 757 mmHg 87%
    11:00 +29°C° 1 mm 2 mps 756 mmHg 83%
    12:00 +30°C° 1 mm 2 mps 756 mmHg 79%
    13:00 +30°C° 1.6 mm 3 mps 755 mmHg 81%
    14:00 +30°C° 1.6 mm 3 mps 754 mmHg 82%
    15:00 +29°C° 1.6 mm 3 mps 754 mmHg 84%
    16:00 +29°C° 1.8 mm 4 mps 754 mmHg 86%
    17:00 +28°C° 1.8 mm 4 mps 755 mmHg 89%
    18:00 +27°C° 1.8 mm 5 mps 755 mmHg 91%
    19:00 +27°C° 1.7 mm 5 mps 756 mmHg 91%
    20:00 +27°C° 1.7 mm 5 mps 757 mmHg 92%
    21:00 +27°C° 1.7 mm 5 mps 757 mmHg 92%
    22:00 +27°C° 0.9 mm 4 mps 757 mmHg 92%
    23:00 +27°C° 0.9 mm 4 mps 757 mmHg 91%

    25 November, Saturday

    Time Temperature Precipitation Wind Pressure Humidity
    00:00 +26°C° 0.9 mm 4 mps 756 mmHg 90%
    01:00 +26°C° 0.8 mm 4 mps 756 mmHg 90%
    02:00 +26°C° 0.8 mm 4 mps 755 mmHg 90%
    03:00 +26°C° 0.8 mm 3 mps 755 mmHg 90%
    04:00 +26°C° 0.6 mm 3 mps 755 mmHg 89%
    05:00 +26°C° 0.6 mm 4 mps 756 mmHg 89%
    06:00 +26°C° 0.6 mm 4 mps 756 mmHg 88%
    07:00 +27°C° 0.4 mm 4 mps 757 mmHg 85%
    08:00 +28°C° 0.4 mm 4 mps 757 mmHg 81%
    09:00 +29°C° 0.4 mm 4 mps 758 mmHg 77%
    10:00 +30°C° 1 mm 4 mps 758 mmHg 76%
    11:00 +30°C° 1 mm 4 mps 757 mmHg 76%
    12:00 +30°C° 1 mm 3 mps 757 mmHg 75%
    13:00 +30°C° 0.8 mm 3 mps 756 mmHg 76%
    14:00 +31°C° 0.8 mm 3 mps 755 mmHg 77%
    15:00 +31°C° 0.8 mm 3 mps 755 mmHg 78%
    16:00 +30°C° 0.2 mm 3 mps 755 mmHg 81%
    17:00 +29°C° 0.2 mm 2 mps 756 mmHg 85%
    18:00 +28°C° 0.2 mm 2 mps 756 mmHg 88%
    19:00 +28°C° 0.1 mm 2 mps 757 mmHg 89%
    20:00 +28°C° 0.1 mm 2 mps 757 mmHg 89%
    21:00 +28°C° 0.1 mm 1 mps 758 mmHg 90%
    22:00 +27°C° 0.1 mm 1 mps 758 mmHg 90%
    23:00 +27°C° 0.1 mm 1 mps 757 mmHg 90%

    26 November, Sunday

    Time Temperature Precipitation Wind Pressure Humidity
    00:00 +27°C° 0.1 mm 1 mps 757 mmHg 91%
    01:00 +27°C° 0.2 mm 1 mps 757 mmHg 90%
    02:00 +27°C° 0.2 mm 1 mps 756 mmHg 90%
    03:00 +27°C° 0.2 mm 1 mps 756 mmHg 90%
    04:00 +27°C° 0.8 mm 1 mps 756 mmHg 90%
    05:00 +27°C° 0.8 mm 1 mps 757 mmHg 91%
    06:00 +27°C° 0.8 mm 1 mps 757 mmHg 91%
    07:00 +27°C° 0.6 mm 1 mps 758 mmHg 89%
    08:00 +28°C° 0.6 mm 1 mps 758 mmHg 87%
    09:00 +28°C° 0.6 mm 2 mps 759 mmHg 85%
    10:00 +29°C° 0.3 mm 2 mps 758 mmHg 82%
    11:00 +29°C° 0.3 mm 2 mps 757 mmHg 80%
    12:00 +30°C° 0.3 mm 3 mps 757 mmHg 78%
    13:00 +30°C° 0.8 mm 3 mps 756 mmHg 80%
    14:00 +30°C° 0.8 mm 3 mps 756 mmHg 82%
    15:00 +29°C° 0.8 mm 3 mps 755 mmHg 84%
    16:00 +29°C° 0.9 mm 3 mps 755 mmHg 86%
    17:00 +28°C° 0.9 mm 3 mps 756 mmHg 89%
    18:00 +27°C° 0.9 mm 3 mps 756 mmHg 91%
    19:00 +27°C° 0.2 mm 3 mps 757 mmHg 91%
    20:00 +27°C° 0.2 mm 3 mps 757 mmHg 91%
    21:00 +27°C° 0.2 mm 2 mps 758 mmHg 91%
    22:00 +27°C° 0.6 mm 2 mps 757 mmHg 91%
    23:00 +27°C° 0.6 mm 2 mps 757 mmHg 90%

    27 November, Monday

    Time Temperature Precipitation Wind Pressure Humidity
    00:00 +26°C° 0.6 mm 2 mps 756 mmHg 90%
    01:00 +26°C° 1 mm 3 mps 756 mmHg 91%
    02:00 +26°C° 1 mm 3 mps 756 mmHg 91%
    03:00 +26°C° 1 mm 3 mps 755 mmHg 92%
    04:00 +26°C° 1 mm 3 mps 756 mmHg 92%
    05:00 +26°C° 1 mm 2 mps 756 mmHg 92%
    06:00 +26°C° 1 mm 2 mps 757 mmHg 93%
    07:00 +26°C° 0.7 mm 2 mps 757 mmHg 92%
    08:00 +26°C° 0.7 mm 2 mps 758 mmHg 92%
    09:00 +27°C° 0.7 mm 2 mps 758 mmHg 91%
    10:00 +28°C° 0.5 mm 2 mps 757 mmHg 85%
    11:00 +30°C° 0.5 mm 2 mps 757 mmHg 79%
    12:00 +31°C° 0.5 mm 2 mps 756 mmHg 73%
    13:00 +31°C° 0.5 mm 2 mps 755 mmHg 75%
    14:00 +31°C° 0.5 mm 3 mps 755 mmHg 76%
    15:00 +30°C° 0.5 mm 3 mps 754 mmHg 77%
    16:00 +29°C° 0.1 mm 3 mps 754 mmHg 81%
    17:00 +28°C° 0.1 mm 3 mps 755 mmHg 84%
    18:00 +27°C° 0.1 mm 3 mps 755 mmHg 87%
    19:00 +27°C° 0 mm 3 mps 756 mmHg 88%
    20:00 +27°C° 0 mm 3 mps 756 mmHg 88%
    21:00 +27°C° 0 mm 3 mps 756 mmHg 88%
    22:00 +27°C° 0 mm 3 mps 756 mmHg 88%
    23:00 +26°C° 0 mm 3 mps 756 mmHg 88%
    Show more